Current weather by "City, St" or "zip code"  
 

Current Conditions: Roswell International Air Center Airport, NM

Fair


48.0 F

Last Updated on Oct 30 2020, 11:51 pm MDT
Humidity: 66%
Wind Speed: N 0.0 mph
Barometer 30.13 in
Dewpoint: 37.0 F
Visibility: 10.00 mi
Precip: --
Heat Index: NA
Wind Chill: NA
Current conditions at:

Roswell International Air Center Airport, NM (KROW)

Lat: 33.30737 Lon: 104.50816

Local Radar Image active severe weather and emergency alerts image image weather storm and storm spotter reports image weather observation monitoring service image
Local
Radar
Active
Alerts
Storm Reports Obs
Monitoring

Sign-up For Email & Text Message Weather Alert Notification Services



Advertise Here

Observation History for Roswell International Air Center Airport, NM


Time Wind
(mph)
Vis
(mi)
Weather Precip (in) Temperature (F) Relative
Humidity
Wind
Chill
(F)
Heat
Index
(F)
Pressure
Air Dwpt altimeter
(in)
sea level
(mb)
Rmks
11:51 pm MDT N 0.0 10.00 Fair -- 48.0 37.0 66% NA NA 30.13 1017.3
10:51 pm MDT N 0.0 10.00 Fair -- 47.0 37.0 69% NA NA 30.15 1018.2
9:51 pm MDT N 0.0 10.00 Fair -- 51.0 37.0 59% NA NA 30.14 1018.0
8:51 pm MDT S 9.2 10.00 Fair -- 54.0 36.0 51% 51 NA 30.13 1018.0
7:51 pm MDT S 9.2 10.00 Fair -- 56.0 36.0 47% 54 NA 30.13 1018.0
6:51 pm MDT S 6.9 10.00 Fair -- 58.0 37.0 46% 57 NA 30.12 1017.5
5:51 pm MDT S 10.4 10.00 Fair -- 66.0 35.1 32% NA NA 30.11 1016.5
4:51 pm MDT S 11.5 10.00 Fair -- 70.0 33.1 26% NA NA 30.12 1016.5
3:51 pm MDT SE 11.5 10.00 Fair -- 70.0 34.0 27% NA NA 30.12 1016.6
2:51 pm MDT S 10.4 G 20.7 10.00 Fair -- 69.0 35.1 29% NA NA 30.14 1017.3
1:51 pm MDT S 10.4 10.00 Fair -- 67.0 37.9 35% NA NA 30.18 1018.5
12:51 pm MDT S 6.9 10.00 Fair -- 61.0 39.0 44% 60 NA 30.22 1020.3
11:51 am MDT SE 6.9 10.00 Fair -- 58.0 39.9 51% 57 NA 30.25 1021.6
10:51 am MDT N 0.0 10.00 Fair -- 52.0 39.0 61% NA NA 30.28 1022.9
9:51 am MDT N 0.0 10.00 Fair -- 48.0 36.0 63% NA NA 30.30 1023.8
8:51 am MDT N 3.5 10.00 Fair -- 44.0 36.0 73% NA NA 30.30 1024.1
7:51 am MDT N 0.0 10.00 Fair -- 40.0 34.0 79% NA NA 30.28 1023.5
6:51 am MDT N 0.0 10.00 Fair -- 38.0 34.0 86% NA NA 30.27 1023.2
5:51 am MDT N 0.0 10.00 Fair -- 38.0 33.1 83% NA NA 30.27 1022.7
4:51 am MDT N 0.0 10.00 Fair -- 39.0 33.1 79% NA NA 30.25 1021.9
3:51 am MDT N 0.0 10.00 Fair -- 41.0 34.0 76% NA NA 30.25 1021.9
2:51 am MDT N 0.0 10.00 Fair -- 42.0 35.1 76% NA NA 30.26 1021.9
1:51 am MDT SE 5.8 10.00 Fair -- 42.0 35.1 76% 38 NA 30.26 1022.1
12:51 am MDT SE 5.8 10.00 Fair -- 44.0 36.0 73% 41 NA 30.26 1022.1

Regional Weather Observation


Sierra Blanca Regional Airport, NM (KSRR)

Fair
45.0 F

Artesia Municipal Airport, NM (KATS)

Fair
46.0 F

Corona/Lincoln, NM (K4CR)

Clear
52.0 F

Carlsbad, Cavern City Air Terminal Airport, NM (KCNM)

Fair
54.0 F

Alamogordo-White, NM (KALM)

Fair
48.0 F

Cannon Air Force Base / Clovis, NM (KCVS)

Fair
43.0 F